Location: B�hl
(48.6968°N, 8.1352°E)
Time: 23:59:29
(UTC+00:00)

Cosmos 1937 Rocket - Pass Details

Date: 08 March 2021
Orbit: 747 x 780 km, 74.0° (Epoch: 20 April)

Event Time Altitude Azimuth Distance (km) Brightness Sun altitude
Rises 19:31:45 0° 338° (NNW) 3,216 7.3 -21.9°
Reaches altitude 10° 19:34:10 10° 342° (NNW) 2,283 6.4 -22.3°
Maximum altitude 19:39:17 64° 64° (ENE) 831 3.4 -23.1°
Enters shadow 19:39:46 61° 93° (E) 853 3.4 -23.1°
